Time,TemperatureF,DewpointF,PressureIn,WindDirection,WindDirectionDegrees,WindSpeedMPH,WindSpeedGustMPH,Humidity,HourlyPrecipIn,Conditions,Clouds,dailyrainin,SoftwareType,DateUTC
2013-11-25 00:01:00,72.1,61.4,29.58,NNE,22,0.0,0.0,69,0.00,,,0.30,WUHU21623XXSP,2013-11-25 05:01:00,
2013-11-25 00:15:00,72.1,61.9,29.58,NE,45,0.0,0.0,70,0.00,,,0.00,WUHU21623XXSP,2013-11-25 05:15:00,
2013-11-25 00:20:00,72.1,61.9,29.57,ENE,67,0.0,0.0,70,0.00,,,0.00,WUHU21623XXSP,2013-11-25 05:20:00,
2013-11-25 00:25:00,72.1,61.9,29.57,NE,45,0.0,0.0,70,0.00,,,0.00,WUHU21623XXSP,2013-11-25 05:25:00,
2013-11-25 00:30:00,72.1,61.9,29.57,NE,45,0.0,0.0,70,0.00,,,0.00,WUHU21623XXSP,2013-11-25 05:30:00,
2013-11-25 00:35:00,72.1,61.9,29.57,ENE,67,0.0,0.0,70,0.00,,,0.00,WUHU21623XXSP,2013-11-25 05:35:00,
2013-11-25 00:40:00,72.1,61.9,29.57,ENE,67,0.0,0.0,70,0.00,,,0.00,WUHU21623XXSP,2013-11-25 05:40:00,
2013-11-25 00:45:00,72.1,61.9,29.57,NNE,22,0.0,0.0,70,0.00,,,0.00,WUHU21623XXSP,2013-11-25 05:45:00,
2013-11-25 00:50:00,72.1,61.9,29.57,NE,45,0.0,0.0,70,0.00,,,0.00,WUHU21623XXSP,2013-11-25 05:50:00,
2013-11-25 00:55:00,72.1,61.4,29.57,ESE,112,0.0,0.0,69,0.00,,,0.00,WUHU21623XXSP,2013-11-25 05:55:00,
2013-11-25 01:00:00,72.1,61.4,29.57,North,0,0.0,0.0,69,0.00,,,0.00,WUHU21623XXSP,2013-11-25 06:00:00,
2013-11-25 01:05:00,72.1,61.4,29.57,North,0,0.0,0.0,69,0.00,,,0.00,WUHU21623XXSP,2013-11-25 06:05:00,
2013-11-25 01:11:00,72.1,61.9,29.57,NE,45,0.0,0.0,70,0.00,,,0.00,WUHU21623XXSP,2013-11-25 06:11:00,
2013-11-25 01:16:00,72.0,62.1,29.57,NNE,22,0.0,0.0,71,0.00,,,0.00,WUHU21623XXSP,2013-11-25 06:16:00,
2013-11-25 01:21:00,71.8,61.9,29.56,NE,45,0.0,0.0,71,0.00,,,0.00,WUHU21623XXSP,2013-11-25 06:21:00,
2013-11-25 01:26:00,71.8,62.3,29.57,ENE,67,0.0,0.0,72,0.00,,,0.00,WUHU21623XXSP,2013-11-25 06:26:00,
2013-11-25 01:31:00,71.8,62.3,29.57,NE,45,0.0,0.0,72,0.00,,,0.00,WUHU21623XXSP,2013-11-25 06:31:00,
2013-11-25 01:36:00,71.4,61.9,29.57,NE,45,0.0,0.0,72,0.00,,,0.00,WUHU21623XXSP,2013-11-25 06:36:00,
2013-11-25 01:41:00,71.4,61.9,29.57,NE,45,0.0,0.0,72,0.00,,,0.00,WUHU21623XXSP,2013-11-25 06:41:00,
2013-11-25 01:46:00,71.2,61.4,29.57,NE,45,0.0,0.0,71,0.00,,,0.00,WUHU21623XXSP,2013-11-25 06:46:00,
2013-11-25 01:51:00,71.2,61.7,29.57,NE,45,0.0,0.0,72,0.00,,,0.00,WUHU21623XXSP,2013-11-25 06:51:00,
2013-11-25 01:56:00,71.2,61.4,29.57,NE,45,0.0,0.0,71,0.00,,,0.00,WUHU21623XXSP,2013-11-25 06:56:00,
2013-11-25 02:01:00,71.2,61.4,29.56,NE,45,0.0,0.0,71,0.00,,,0.00,WUHU21623XXSP,2013-11-25 07:01:00,
2013-11-25 02:06:00,71.4,61.2,29.56,NE,45,0.0,0.0,70,0.00,,,0.00,WUHU21623XXSP,2013-11-25 07:06:00,
2013-11-25 02:11:00,71.2,61.0,29.56,NE,45,0.0,0.0,70,0.00,,,0.00,WUHU21623XXSP,2013-11-25 07:11:00,
2013-11-25 02:16:00,71.4,60.7,29.56,NNE,22,0.0,0.0,69,0.00,,,0.00,WUHU21623XXSP,2013-11-25 07:16:00,
2013-11-25 02:21:00,71.4,60.3,29.56,ESE,112,0.0,0.0,68,0.00,,,0.00,WUHU21623XXSP,2013-11-25 07:21:00,
2013-11-25 02:26:00,71.4,60.3,29.56,NE,45,0.0,0.0,68,0.00,,,0.00,WUHU21623XXSP,2013-11-25 07:26:00,
2013-11-25 02:31:00,71.4,60.3,29.56,ENE,67,0.0,0.0,68,0.00,,,0.00,WUHU21623XXSP,2013-11-25 07:31:00,
2013-11-25 02:36:00,71.4,60.7,29.56,NNE,22,0.0,0.0,69,0.00,,,0.00,WUHU21623XXSP,2013-11-25 07:36:00,
2013-11-25 02:41:00,71.4,60.3,29.56,ENE,67,0.0,0.0,68,0.00,,,0.00,WUHU21623XXSP,2013-11-25 07:41:00,
2013-11-25 02:46:00,71.4,60.3,29.56,NE,45,0.0,0.0,68,0.00,,,0.00,WUHU21623XXSP,2013-11-25 07:46:00,
2013-11-25 02:51:00,71.4,60.3,29.56,NE,45,0.0,0.0,68,0.00,,,0.00,WUHU21623XXSP,2013-11-25 07:51:00,
2013-11-25 02:56:00,71.4,60.3,29.56,NE,45,0.0,0.0,68,0.00,,,0.00,WUHU21623XXSP,2013-11-25 07:56:00,
2013-11-25 03:01:00,71.6,60.5,29.56,NNE,22,0.0,0.0,68,0.00,,,0.00,WUHU21623XXSP,2013-11-25 08:01:00,
2013-11-25 03:06:00,71.6,60.5,29.56,ENE,67,0.0,0.0,68,0.00,,,0.00,WUHU21623XXSP,2013-11-25 08:06:00,
2013-11-25 03:11:00,71.6,60.5,29.56,ESE,112,0.0,0.0,68,0.00,,,0.00,WUHU21623XXSP,2013-11-25 08:11:00,
2013-11-25 03:16:00,71.4,60.3,29.56,NE,45,0.0,0.0,68,0.00,,,0.00,WUHU21623XXSP,2013-11-25 08:16:00,
2013-11-25 03:21:00,71.4,60.3,29.56,NNE,22,0.0,0.0,68,0.00,,,0.00,WUHU21623XXSP,2013-11-25 08:21:00,
2013-11-25 03:26:00,71.4,60.3,29.56,NE,45,0.0,0.0,68,0.00,,,0.00,WUHU21623XXSP,2013-11-25 08:26:00,
2013-11-25 03:31:00,71.4,60.7,29.56,NE,45,0.0,0.0,69,0.00,,,0.00,WUHU21623XXSP,2013-11-25 08:31:00,
2013-11-25 03:36:00,71.4,61.2,29.56,North,0,0.0,0.0,70,0.00,,,0.00,WUHU21623XXSP,2013-11-25 08:36:00,
2013-11-25 03:41:00,71.4,60.7,29.56,NE,45,0.0,0.0,69,0.00,,,0.00,WUHU21623XXSP,2013-11-25 08:41:00,
2013-11-25 03:46:00,71.4,60.3,29.56,East,90,0.0,0.0,68,0.00,,,0.00,WUHU21623XXSP,2013-11-25 08:46:00,
2013-11-25 03:51:00,71.4,60.3,29.56,NE,45,0.0,0.0,68,0.00,,,0.00,WUHU21623XXSP,2013-11-25 08:51:00,
2013-11-25 03:56:00,71.4,60.3,29.56,ESE,112,0.0,0.0,68,0.00,,,0.00,WUHU21623XXSP,2013-11-25 08:56:00,
2013-11-25 04:01:00,71.4,60.3,29.57,ENE,67,0.0,0.0,68,0.00,,,0.00,WUHU21623XXSP,2013-11-25 09:01:00,
2013-11-25 04:06:00,71.4,60.3,29.56,NNE,22,0.0,0.0,68,0.00,,,0.00,WUHU21623XXSP,2013-11-25 09:06:00,
2013-11-25 04:11:00,71.2,60.1,29.56,NE,45,0.0,0.0,68,0.00,,,0.00,WUHU21623XXSP,2013-11-25 09:11:00,
2013-11-25 04:16:00,71.2,60.1,29.56,NNE,22,0.0,0.0,68,0.00,,,0.00,WUHU21623XXSP,2013-11-25 09:16:00,
2013-11-25 04:21:00,71.2,60.1,29.56,NE,45,0.0,0.0,68,0.00,,,0.00,WUHU21623XXSP,2013-11-25 09:21:00,
2013-11-25 04:26:00,71.2,60.1,29.56,NE,45,0.0,0.0,68,0.00,,,0.00,WUHU21623XXSP,2013-11-25 09:26:00,
2013-11-25 04:31:00,71.2,60.1,29.57,NNE,22,0.0,0.0,68,0.00,,,0.00,WUHU21623XXSP,2013-11-25 09:31:00,
2013-11-25 04:36:00,71.2,60.1,29.57,NE,45,0.0,0.0,68,0.00,,,0.00,WUHU21623XXSP,2013-11-25 09:36:00,
2013-11-25 04:41:00,71.2,60.1,29.57,NNE,22,0.0,0.0,68,0.00,,,0.00,WUHU21623XXSP,2013-11-25 09:41:00,
2013-11-25 04:46:00,71.2,59.7,29.57,NE,45,0.0,0.0,67,0.00,,,0.00,WUHU21623XXSP,2013-11-25 09:46:00,
2013-11-25 04:51:00,71.2,60.1,29.57,NNE,22,0.0,0.0,68,0.00,,,0.00,WUHU21623XXSP,2013-11-25 09:51:00,
2013-11-25 04:56:00,71.2,60.1,29.57,ESE,112,0.0,0.0,68,0.00,,,0.00,WUHU21623XXSP,2013-11-25 09:56:00,
2013-11-25 05:01:00,71.2,59.7,29.57,NNE,22,0.0,0.0,67,0.00,,,0.00,WUHU21623XXSP,2013-11-25 10:01:00,
2013-11-25 05:06:00,71.2,59.7,29.57,NE,45,0.0,0.0,67,0.00,,,0.00,WUHU21623XXSP,2013-11-25 10:06:00,
2013-11-25 05:11:00,71.2,59.7,29.57,NNE,22,0.0,0.0,67,0.00,,,0.00,WUHU21623XXSP,2013-11-25 10:11:00,
2013-11-25 05:16:00,71.2,59.7,29.57,SE,135,0.0,0.0,67,0.00,,,0.00,WUHU21623XXSP,2013-11-25 10:16:00,
2013-11-25 05:21:00,71.2,59.7,29.57,ENE,67,0.0,0.0,67,0.00,,,0.00,WUHU21623XXSP,2013-11-25 10:21:00,
2013-11-25 05:26:00,71.2,59.3,29.56,NE,45,0.0,0.0,66,0.00,,,0.00,WUHU21623XXSP,2013-11-25 10:26:00,
2013-11-25 05:31:00,71.2,58.8,29.56,ESE,112,0.0,0.0,65,0.00,,,0.00,WUHU21623XXSP,2013-11-25 10:31:00,
2013-11-25 05:36:00,71.2,58.8,29.56,NE,45,0.0,0.0,65,0.00,,,0.00,WUHU21623XXSP,2013-11-25 10:36:00,
2013-11-25 05:41:00,71.2,58.8,29.56,ENE,67,0.0,0.0,65,0.00,,,0.00,WUHU21623XXSP,2013-11-25 10:41:00,
2013-11-25 05:46:00,71.2,58.8,29.56,SE,135,0.0,0.0,65,0.00,,,0.00,WUHU21623XXSP,2013-11-25 10:46:00,
2013-11-25 05:51:00,71.2,58.8,29.56,NNE,22,0.0,0.0,65,0.00,,,0.00,WUHU21623XXSP,2013-11-25 10:51:00,
2013-11-25 05:56:00,71.2,58.8,29.57,NE,45,0.0,0.0,65,0.00,,,0.00,WUHU21623XXSP,2013-11-25 10:56:00,
2013-11-25 06:01:00,71.2,58.8,29.57,NE,45,0.0,0.0,65,0.00,,,0.00,WUHU21623XXSP,2013-11-25 11:01:00,
2013-11-25 06:06:00,71.2,58.8,29.57,NE,45,0.0,0.0,65,0.00,,,0.00,WUHU21623XXSP,2013-11-25 11:06:00,
2013-11-25 06:11:00,71.2,58.8,29.57,NE,45,0.0,0.0,65,0.00,,,0.00,WUHU21623XXSP,2013-11-25 11:11:00,
2013-11-25 06:16:00,71.2,58.7,29.57,NE,45,0.0,0.0,65,0.00,,,0.00,WUHU21623XXSP,2013-11-25 11:16:00,
2013-11-25 06:21:00,71.1,58.7,29.57,East,90,0.0,0.0,65,0.00,,,0.00,WUHU21623XXSP,2013-11-25 11:21:00,
2013-11-25 06:26:00,71.1,58.7,29.57,NE,45,0.0,0.0,65,0.00,,,0.00,WUHU21623XXSP,2013-11-25 11:26:00,
2013-11-25 06:31:00,71.1,58.7,29.57,NE,45,0.0,0.0,65,0.00,,,0.00,WUHU21623XXSP,2013-11-25 11:31:00,
2013-11-25 06:36:00,70.9,58.5,29.57,ENE,67,0.0,0.0,65,0.00,,,0.00,WUHU21623XXSP,2013-11-25 11:36:00,
2013-11-25 06:41:00,71.1,58.7,29.57,ENE,67,0.0,0.0,65,0.00,,,0.00,WUHU21623XXSP,2013-11-25 11:41:00,
2013-11-25 06:46:00,71.2,58.5,29.57,ESE,112,0.0,0.0,65,0.00,,,0.00,WUHU21623XXSP,2013-11-25 11:46:00,
2013-11-25 06:51:00,71.2,59.3,29.57,SE,135,0.0,0.0,66,0.00,,,0.00,WUHU21623XXSP,2013-11-25 11:51:00,
2013-11-25 06:56:00,70.9,58.9,29.58,East,90,0.0,0.0,66,0.00,,,0.00,WUHU21623XXSP,2013-11-25 11:56:00,
2013-11-25 07:01:00,71.1,59.1,29.58,NE,45,0.0,0.0,66,0.00,,,0.00,WUHU21623XXSP,2013-11-25 12:01:00,
2013-11-25 07:06:00,71.2,58.8,29.58,NE,45,0.0,0.0,65,0.00,,,0.00,WUHU21623XXSP,2013-11-25 12:06:00,
2013-11-25 07:11:00,71.2,59.3,29.58,ENE,67,0.0,0.0,66,0.00,,,0.00,WUHU21623XXSP,2013-11-25 12:11:00,
2013-11-25 07:16:00,71.2,59.3,29.58,East,90,0.0,0.0,66,0.00,,,0.00,WUHU21623XXSP,2013-11-25 12:16:00,
2013-11-25 07:21:00,71.4,59.4,29.58,ESE,112,0.0,0.0,66,0.00,,,0.00,WUHU21623XXSP,2013-11-25 12:21:00,
2013-11-25 07:26:00,71.4,59.9,29.59,NNE,22,0.0,0.0,67,0.00,,,0.00,WUHU21623XXSP,2013-11-25 12:26:00,
2013-11-25 07:31:00,71.4,59.9,29.59,East,90,0.0,0.0,67,0.00,,,0.00,WUHU21623XXSP,2013-11-25 12:31:00,
2013-11-25 07:36:00,71.6,60.0,29.59,NE,45,0.0,0.0,67,0.00,,,0.00,WUHU21623XXSP,2013-11-25 12:36:00,
2013-11-25 07:41:00,71.4,59.9,29.59,East,90,0.0,0.0,67,0.00,,,0.00,WUHU21623XXSP,2013-11-25 12:41:00,
2013-11-25 07:46:00,71.6,60.0,29.60,SE,135,0.0,0.0,67,0.00,,,0.00,WUHU21623XXSP,2013-11-25 12:46:00,
2013-11-25 07:51:00,71.4,59.9,29.60,ENE,67,0.0,0.0,67,0.00,,,0.00,WUHU21623XXSP,2013-11-25 12:51:00,
2013-11-25 07:56:00,71.4,59.9,29.60,ENE,67,0.0,0.0,67,0.00,,,0.00,WUHU21623XXSP,2013-11-25 12:56:00,
2013-11-25 08:01:00,71.4,59.9,29.60,ESE,112,0.0,0.0,67,0.00,,,0.00,WUHU21623XXSP,2013-11-25 13:01:00,
2013-11-25 08:06:00,71.4,59.4,29.60,ENE,67,0.0,0.0,66,0.00,,,0.00,WUHU21623XXSP,2013-11-25 13:06:00,
2013-11-25 08:11:00,71.6,59.6,29.60,East,90,0.0,0.0,66,0.00,,,0.00,WUHU21623XXSP,2013-11-25 13:11:00,
2013-11-25 08:16:00,71.8,59.8,29.60,SE,135,0.0,0.0,66,0.00,,,0.00,WUHU21623XXSP,2013-11-25 13:16:00,
2013-11-25 08:21:00,72.0,60.0,29.60,NE,45,0.0,0.0,66,0.00,,,0.00,WUHU21623XXSP,2013-11-25 13:21:00,
2013-11-25 08:26:00,72.5,60.5,29.61,South,180,0.0,0.0,66,0.00,,,0.00,WUHU21623XXSP,2013-11-25 13:26:00,
2013-11-25 08:31:00,72.7,60.6,29.61,ENE,67,0.0,0.0,66,0.00,,,0.00,WUHU21623XXSP,2013-11-25 13:31:00,
2013-11-25 08:36:00,72.7,60.6,29.61,ESE,112,0.0,0.0,66,0.00,,,0.00,WUHU21623XXSP,2013-11-25 13:36:00,
2013-11-25 08:41:00,72.5,60.5,29.61,ESE,112,0.0,0.0,66,0.00,,,0.00,WUHU21623XXSP,2013-11-25 13:41:00,
2013-11-25 08:46:00,72.5,60.5,29.61,ESE,112,0.0,0.0,66,0.00,,,0.00,WUHU21623XXSP,2013-11-25 13:46:00,
2013-11-25 08:51:00,72.5,60.5,29.61,SE,135,0.0,0.0,66,0.00,,,0.00,WUHU21623XXSP,2013-11-25 13:51:00,
2013-11-25 08:56:00,72.5,60.5,29.61,East,90,0.0,0.0,66,0.00,,,0.00,WUHU21623XXSP,2013-11-25 13:56:00,
2013-11-25 09:01:00,73.0,61.4,29.62,NE,45,0.0,0.0,67,0.00,,,0.00,WUHU21623XXSP,2013-11-25 14:01:00,
2013-11-25 09:06:00,73.4,62.2,29.62,NE,45,0.0,0.0,68,0.00,,,0.00,WUHU21623XXSP,2013-11-25 14:06:00,
2013-11-25 09:11:00,73.8,62.1,29.63,ENE,67,0.0,0.0,67,0.00,,,0.00,WUHU21623XXSP,2013-11-25 14:11:00,
2013-11-25 09:16:00,73.9,62.3,29.63,East,90,0.0,0.0,67,0.00,,,0.00,WUHU21623XXSP,2013-11-25 14:16:00,
2013-11-25 09:21:00,73.9,62.3,29.63,SE,135,0.0,0.0,67,0.00,,,0.00,WUHU21623XXSP,2013-11-25 14:21:00,
2013-11-25 09:26:00,73.6,62.0,29.63,NE,45,0.0,0.0,67,0.00,,,0.00,WUHU21623XXSP,2013-11-25 14:26:00,
2013-11-25 09:31:00,73.2,61.6,29.63,ENE,67,0.0,0.0,67,0.00,,,0.00,WUHU21623XXSP,2013-11-25 14:31:00,
2013-11-25 09:36:00,73.2,62.1,29.63,East,90,0.0,0.0,68,0.00,,,0.00,WUHU21623XXSP,2013-11-25 14:36:00,
2013-11-25 09:41:00,73.2,61.9,29.63,ESE,112,0.0,0.0,68,0.00,,,0.00,WUHU21623XXSP,2013-11-25 14:41:00,
2013-11-25 09:46:00,73.2,62.1,29.63,ESE,112,0.0,0.0,68,0.00,,,0.00,WUHU21623XXSP,2013-11-25 14:46:00,
2013-11-25 09:51:00,73.6,62.4,29.63,NNE,22,0.0,0.0,68,0.00,,,0.00,WUHU21623XXSP,2013-11-25 14:51:00,
2013-11-25 09:56:00,73.9,62.3,29.63,East,90,0.0,0.0,67,0.00,,,0.00,WUHU21623XXSP,2013-11-25 14:56:00,
2013-11-25 10:01:00,74.1,62.5,29.63,NE,45,0.0,0.0,67,0.00,,,0.00,WUHU21623XXSP,2013-11-25 15:01:00,
2013-11-25 10:06:00,74.3,62.2,29.63,NE,45,0.0,0.0,66,0.00,,,0.00,WUHU21623XXSP,2013-11-25 15:06:00,
2013-11-25 10:11:00,74.3,62.2,29.63,ENE,67,0.0,0.0,66,0.00,,,0.00,WUHU21623XXSP,2013-11-25 15:11:00,
2013-11-25 10:16:00,74.3,62.2,29.63,South,180,0.0,0.0,66,0.00,,,0.00,WUHU21623XXSP,2013-11-25 15:16:00,
2013-11-25 10:21:00,74.3,62.2,29.63,South,180,0.0,0.0,66,0.00,,,0.00,WUHU21623XXSP,2013-11-25 15:21:00,
2013-11-25 10:26:00,74.5,62.3,29.64,SE,135,0.0,0.0,66,0.00,,,0.00,WUHU21623XXSP,2013-11-25 15:26:00,
2013-11-25 10:31:00,74.3,62.2,29.64,ENE,67,0.0,0.0,66,0.00,,,0.00,WUHU21623XXSP,2013-11-25 15:31:00,
2013-11-25 10:36:00,74.1,62.0,29.64,East,90,0.0,0.0,66,0.00,,,0.00,WUHU21623XXSP,2013-11-25 15:36:00,
2013-11-25 10:41:00,74.3,62.6,29.64,ESE,112,0.0,0.0,67,0.00,,,0.00,WUHU21623XXSP,2013-11-25 15:41:00,
2013-11-25 10:46:00,74.5,62.3,29.64,ESE,112,0.0,0.0,66,0.00,,,0.00,WUHU21623XXSP,2013-11-25 15:46:00,
2013-11-25 10:51:00,74.5,62.3,29.64,ENE,67,0.0,0.0,66,0.00,,,0.00,WUHU21623XXSP,2013-11-25 15:51:00,
2013-11-25 10:56:00,74.1,62.5,29.64,East,90,0.0,0.0,67,0.00,,,0.00,WUHU21623XXSP,2013-11-25 15:56:00,
2013-11-25 11:01:00,74.1,62.5,29.63,NE,45,0.0,0.0,67,0.00,,,0.00,WUHU21623XXSP,2013-11-25 16:01:00,
2013-11-25 11:06:00,74.1,62.5,29.63,NE,45,0.0,0.0,67,0.00,,,0.00,WUHU21623XXSP,2013-11-25 16:06:00,
2013-11-25 11:11:00,74.1,62.9,29.63,ENE,67,0.0,0.0,68,0.00,,,0.00,WUHU21623XXSP,2013-11-25 16:11:00,
2013-11-25 11:16:00,73.9,62.7,29.64,ENE,67,0.0,0.0,68,0.00,,,0.00,WUHU21623XXSP,2013-11-25 16:16:00,
2013-11-25 11:21:00,73.8,62.6,29.63,SE,135,0.0,0.0,68,0.00,,,0.00,WUHU21623XXSP,2013-11-25 16:21:00,
2013-11-25 11:26:00,73.8,62.6,29.63,East,90,0.0,0.0,68,0.00,,,0.00,WUHU21623XXSP,2013-11-25 16:26:00,
2013-11-25 11:31:00,73.9,62.7,29.63,NE,45,0.0,0.0,68,0.00,,,0.00,WUHU21623XXSP,2013-11-25 16:31:00,
2013-11-25 11:36:00,74.1,62.9,29.63,East,90,0.0,0.0,68,0.00,,,0.00,WUHU21623XXSP,2013-11-25 16:36:00,
2013-11-25 11:41:00,74.3,63.5,29.63,ENE,67,0.0,0.0,69,0.00,,,0.00,WUHU21623XXSP,2013-11-25 16:41:00,
2013-11-25 11:46:00,74.5,63.2,29.62,NE,45,0.0,0.0,68,0.00,,,0.00,WUHU21623XXSP,2013-11-25 16:46:00,
2013-11-25 11:51:00,75.0,63.7,29.62,NE,45,0.0,0.0,68,0.00,,,0.00,WUHU21623XXSP,2013-11-25 16:51:00,
2013-11-25 11:56:00,75.4,63.6,29.62,ESE,112,0.0,0.0,67,0.00,,,0.00,WUHU21623XXSP,2013-11-25 16:56:00,
2013-11-25 12:01:00,75.7,64.0,29.62,ENE,67,0.0,0.0,67,0.00,,,0.00,WUHU21623XXSP,2013-11-25 17:01:00,
2013-11-25 12:06:00,75.4,63.6,29.62,NNE,22,0.0,0.0,67,0.00,,,0.00,WUHU21623XXSP,2013-11-25 17:06:00,
2013-11-25 12:11:00,75.0,63.3,29.61,NNE,22,0.0,0.0,67,0.00,,,0.00,WUHU21623XXSP,2013-11-25 17:11:00,
2013-11-25 12:16:00,75.0,63.3,29.61,ENE,67,0.0,0.0,67,0.00,,,0.00,WUHU21623XXSP,2013-11-25 17:16:00,
2013-11-25 12:21:00,75.4,63.6,29.61,NE,45,0.0,0.0,67,0.00,,,0.00,WUHU21623XXSP,2013-11-25 17:21:00,
2013-11-25 12:26:00,75.4,63.6,29.60,ENE,67,0.0,0.0,67,0.00,,,0.00,WUHU21623XXSP,2013-11-25 17:26:00,
2013-11-25 12:31:00,75.4,63.6,29.60,ESE,112,0.0,0.0,67,0.00,,,0.00,WUHU21623XXSP,2013-11-25 17:31:00,
2013-11-25 12:36:00,75.7,64.0,29.60,ENE,67,0.0,0.0,67,0.00,,,0.00,WUHU21623XXSP,2013-11-25 17:36:00,
2013-11-25 12:41:00,75.9,64.1,29.59,NE,45,0.0,0.0,67,0.00,,,0.00,WUHU21623XXSP,2013-11-25 17:41:00,
2013-11-25 12:46:00,75.9,63.7,29.59,NE,45,0.0,0.0,66,0.00,,,0.00,WUHU21623XXSP,2013-11-25 17:46:00,
2013-11-25 12:51:00,76.5,64.2,29.59,ESE,112,0.0,0.0,66,0.00,,,0.00,WUHU21623XXSP,2013-11-25 17:51:00,
2013-11-25 12:56:00,77.4,64.6,29.59,ESE,112,0.0,0.0,66,0.00,,,0.00,WUHU21623XXSP,2013-11-25 17:56:00,
2013-11-25 13:01:00,77.9,64.7,29.58,ENE,67,0.0,0.0,64,0.00,,,0.00,WUHU21623XXSP,2013-11-25 18:01:00,
2013-11-25 13:06:00,77.7,64.1,29.58,NE,45,0.0,0.0,63,0.00,,,0.00,WUHU21623XXSP,2013-11-25 18:06:00,
2013-11-25 13:11:00,77.5,63.9,29.58,NE,45,0.0,0.0,63,0.00,,,0.00,WUHU21623XXSP,2013-11-25 18:11:00,
2013-11-25 13:16:00,76.8,63.6,29.58,ENE,67,0.0,0.0,63,0.00,,,0.00,WUHU21623XXSP,2013-11-25 18:16:00,
2013-11-25 13:21:00,76.3,63.6,29.58,NE,45,0.0,0.0,65,0.00,,,0.00,WUHU21623XXSP,2013-11-25 18:21:00,
2013-11-25 13:26:00,76.1,63.4,29.57,East,90,0.0,0.0,65,0.00,,,0.00,WUHU21623XXSP,2013-11-25 18:26:00,
2013-11-25 13:31:00,75.9,63.3,29.57,ESE,112,0.0,0.0,65,0.00,,,0.00,WUHU21623XXSP,2013-11-25 18:31:00,
2013-11-25 13:36:00,76.1,63.9,29.57,East,90,0.0,0.0,66,0.00,,,0.00,WUHU21623XXSP,2013-11-25 18:36:00,
2013-11-25 13:41:00,76.3,64.1,29.57,NE,45,0.0,0.0,66,0.00,,,0.00,WUHU21623XXSP,2013-11-25 18:41:00,
2013-11-25 13:46:00,76.6,64.4,29.57,South,180,0.0,0.0,66,0.00,,,0.00,WUHU21623XXSP,2013-11-25 18:46:00,
2013-11-25 13:51:00,76.3,63.6,29.57,NE,45,0.0,0.0,65,0.00,,,0.00,WUHU21623XXSP,2013-11-25 18:51:00,
2013-11-25 13:56:00,76.1,63.4,29.57,NE,45,0.0,0.0,65,0.00,,,0.00,WUHU21623XXSP,2013-11-25 18:56:00,
2013-11-25 14:01:00,75.9,63.7,29.57,ESE,112,0.0,0.0,66,0.00,,,0.00,WUHU21623XXSP,2013-11-25 19:01:00,
2013-11-25 14:06:00,75.9,63.7,29.56,ENE,67,0.0,0.0,66,0.00,,,0.00,WUHU21623XXSP,2013-11-25 19:06:00,
2013-11-25 14:11:00,75.7,64.0,29.57,ESE,112,0.0,0.0,67,0.00,,,0.00,WUHU21623XXSP,2013-11-25 19:11:00,
2013-11-25 14:16:00,75.6,63.8,29.56,ESE,112,0.0,0.0,67,0.00,,,0.00,WUHU21623XXSP,2013-11-25 19:16:00,
2013-11-25 14:21:00,75.6,63.8,29.56,East,90,0.0,0.0,67,0.00,,,0.00,WUHU21623XXSP,2013-11-25 19:21:00,
2013-11-25 14:26:00,75.7,64.0,29.56,NE,45,0.0,0.0,67,0.00,,,0.00,WUHU21623XXSP,2013-11-25 19:26:00,
2013-11-25 14:31:00,75.6,63.8,29.56,NE,45,0.0,0.0,67,0.00,,,0.00,WUHU21623XXSP,2013-11-25 19:31:00,
2013-11-25 14:36:00,75.6,63.8,29.55,ENE,67,0.0,0.0,67,0.00,,,0.00,WUHU21623XXSP,2013-11-25 19:36:00,
2013-11-25 14:41:00,75.6,63.8,29.55,NE,45,0.0,0.0,67,0.00,,,0.00,WUHU21623XXSP,2013-11-25 19:41:00,
2013-11-25 14:46:00,75.4,64.1,29.55,NE,45,0.0,0.0,68,0.00,,,0.00,WUHU21623XXSP,2013-11-25 19:46:00,
2013-11-25 14:51:00,75.0,63.7,29.55,NE,45,0.0,0.0,68,0.00,,,0.00,WUHU21623XXSP,2013-11-25 19:51:00,
2013-11-25 14:57:00,75.0,63.7,29.55,NE,45,0.0,0.0,68,0.00,,,0.00,WUHU21623XXSP,2013-11-25 19:57:00,
2013-11-25 15:02:00,75.7,64.4,29.55,NE,45,0.0,0.0,68,0.00,,,0.00,WUHU21623XXSP,2013-11-25 20:02:00,
2013-11-25 15:07:00,75.9,64.6,29.55,NNE,22,0.0,0.0,68,0.00,,,0.00,WUHU21623XXSP,2013-11-25 20:07:00,
2013-11-25 15:12:00,76.1,64.8,29.55,ENE,67,0.0,0.0,68,0.00,,,0.00,WUHU21623XXSP,2013-11-25 20:12:00,
2013-11-25 15:17:00,76.3,64.9,29.55,East,90,0.0,0.0,68,0.00,,,0.00,WUHU21623XXSP,2013-11-25 20:17:00,
2013-11-25 15:22:00,76.3,64.9,29.55,NNE,22,0.0,0.0,68,0.00,,,0.00,WUHU21623XXSP,2013-11-25 20:22:00,
2013-11-25 15:27:00,76.1,64.8,29.55,ESE,112,0.0,0.0,68,0.00,,,0.00,WUHU21623XXSP,2013-11-25 20:27:00,
2013-11-25 15:32:00,75.7,64.4,29.55,ENE,67,0.0,0.0,68,0.00,,,0.00,WUHU21623XXSP,2013-11-25 20:32:00,
2013-11-25 15:37:00,75.4,64.1,29.55,NE,45,0.0,0.0,68,0.00,,,0.00,WUHU21623XXSP,2013-11-25 20:37:00,
2013-11-25 15:42:00,75.4,64.3,29.55,ENE,67,0.0,0.0,69,0.00,,,0.00,WUHU21623XXSP,2013-11-25 20:42:00,
2013-11-25 15:47:00,75.0,64.1,29.55,East,90,0.0,0.0,69,0.00,,,0.00,WUHU21623XXSP,2013-11-25 20:47:00,
2013-11-25 15:52:00,74.8,64.1,29.55,NE,45,0.0,0.0,69,0.00,,,0.00,WUHU21623XXSP,2013-11-25 20:52:00,
2013-11-25 15:57:00,74.8,64.4,29.55,ENE,67,0.0,0.0,70,0.00,,,0.00,WUHU21623XXSP,2013-11-25 20:57:00,
2013-11-25 16:02:00,74.5,64.1,29.55,NNE,22,0.0,0.0,70,0.00,,,0.00,WUHU21623XXSP,2013-11-25 21:02:00,
2013-11-25 16:07:00,74.5,64.1,29.55,East,90,0.0,0.0,70,0.00,,,0.00,WUHU21623XXSP,2013-11-25 21:07:00,
2013-11-25 16:12:00,74.5,64.5,29.55,SE,135,0.0,0.0,71,0.00,,,0.00,WUHU21623XXSP,2013-11-25 21:12:00,
2013-11-25 16:17:00,74.3,64.3,29.55,NE,45,0.0,0.0,71,0.00,,,0.00,WUHU21623XXSP,2013-11-25 21:17:00,
2013-11-25 16:22:00,74.3,64.3,29.55,East,90,0.0,0.0,71,0.00,,,0.00,WUHU21623XXSP,2013-11-25 21:22:00,
2013-11-25 16:27:00,74.1,64.2,29.55,ENE,67,0.0,0.0,71,0.00,,,0.00,WUHU21623XXSP,2013-11-25 21:27:00,
2013-11-25 16:32:00,74.1,64.2,29.55,ENE,67,0.0,0.0,71,0.00,,,0.00,WUHU21623XXSP,2013-11-25 21:32:00,
2013-11-25 16:37:00,73.9,64.0,29.55,ENE,67,0.0,0.0,71,0.00,,,0.00,WUHU21623XXSP,2013-11-25 21:37:00,
2013-11-25 16:42:00,73.9,64.4,29.55,NE,45,0.0,0.0,72,0.00,,,0.00,WUHU21623XXSP,2013-11-25 21:42:00,
2013-11-25 16:47:00,73.9,64.4,29.55,NNE,22,0.0,0.0,72,0.00,,,0.00,WUHU21623XXSP,2013-11-25 21:47:00,
2013-11-25 16:52:00,73.9,64.4,29.55,SE,135,0.0,0.0,72,0.00,,,0.00,WUHU21623XXSP,2013-11-25 21:52:00,
2013-11-25 16:57:00,73.9,64.4,29.55,ENE,67,0.0,0.0,72,0.00,,,0.00,WUHU21623XXSP,2013-11-25 21:57:00,
2013-11-25 17:02:00,73.8,64.2,29.55,NE,45,0.0,0.0,72,0.00,,,0.00,WUHU21623XXSP,2013-11-25 22:02:00,
2013-11-25 17:07:00,73.8,64.2,29.55,ENE,67,0.0,0.0,72,0.00,,,0.00,WUHU21623XXSP,2013-11-25 22:07:00,
2013-11-25 17:12:00,73.6,64.1,29.55,NE,45,0.0,0.0,72,0.00,,,0.00,WUHU21623XXSP,2013-11-25 22:12:00,
2013-11-25 17:17:00,73.6,64.1,29.55,East,90,0.0,0.0,72,0.00,,,0.00,WUHU21623XXSP,2013-11-25 22:17:00,
2013-11-25 17:22:00,73.4,63.9,29.55,ENE,67,0.0,0.0,72,0.00,,,0.00,WUHU21623XXSP,2013-11-25 22:22:00,
2013-11-25 17:27:00,73.4,63.9,29.55,ENE,67,0.0,0.0,72,0.00,,,0.00,WUHU21623XXSP,2013-11-25 22:27:00,
2013-11-25 17:32:00,73.2,64.1,29.55,ENE,67,0.0,0.0,73,0.00,,,0.00,WUHU21623XXSP,2013-11-25 22:32:00,
2013-11-25 17:37:00,73.2,64.5,29.55,ENE,67,0.0,0.0,74,0.00,,,0.00,WUHU21623XXSP,2013-11-25 22:37:00,
2013-11-25 17:42:00,73.2,64.5,29.54,NE,45,0.0,0.0,74,0.00,,,0.00,WUHU21623XXSP,2013-11-25 22:42:00,
2013-11-25 17:47:00,72.9,64.5,29.54,ENE,67,0.0,0.0,75,0.00,,,0.00,WUHU21623XXSP,2013-11-25 22:47:00,
2013-11-25 17:52:00,72.7,64.3,29.54,East,90,0.0,0.0,75,0.00,,,0.00,WUHU21623XXSP,2013-11-25 22:52:00,
2013-11-25 17:57:00,72.7,64.3,29.54,NNE,22,0.0,0.0,75,0.00,,,0.00,WUHU21623XXSP,2013-11-25 22:57:00,
2013-11-25 18:02:00,72.7,64.7,29.54,ESE,112,0.0,0.0,76,0.00,,,0.00,WUHU21623XXSP,2013-11-25 23:02:00,
2013-11-25 18:07:00,72.5,64.5,29.53,ENE,67,0.0,0.0,76,0.00,,,0.00,WUHU21623XXSP,2013-11-25 23:07:00,
2013-11-25 18:12:00,72.3,64.3,29.54,ENE,67,0.0,0.0,76,0.00,,,0.00,WUHU21623XXSP,2013-11-25 23:12:00,
2013-11-25 18:17:00,72.5,64.5,29.54,ENE,67,0.0,0.0,76,0.00,,,0.00,WUHU21623XXSP,2013-11-25 23:17:00,
2013-11-25 18:22:00,72.3,64.3,29.54,SE,135,0.0,0.0,76,0.00,,,0.00,WUHU21623XXSP,2013-11-25 23:22:00,
2013-11-25 18:27:00,72.3,64.7,29.54,East,90,0.0,0.0,77,0.00,,,0.00,WUHU21623XXSP,2013-11-25 23:27:00,
2013-11-25 18:32:00,72.3,64.3,29.54,NE,45,0.0,0.0,76,0.00,,,0.00,WUHU21623XXSP,2013-11-25 23:32:00,
2013-11-25 18:37:00,72.5,64.5,29.54,NE,45,0.0,0.0,76,0.00,,,0.00,WUHU21623XXSP,2013-11-25 23:37:00,
2013-11-25 18:42:00,72.5,64.5,29.54,ESE,112,0.0,0.0,76,0.00,,,0.00,WUHU21623XXSP,2013-11-25 23:42:00,
2013-11-25 18:47:00,72.5,64.9,29.55,NE,45,0.0,0.0,77,0.00,,,0.00,WUHU21623XXSP,2013-11-25 23:47:00,
2013-11-25 18:52:00,72.7,64.7,29.54,NE,45,0.0,0.0,76,0.00,,,0.00,WUHU21623XXSP,2013-11-25 23:52:00,
2013-11-25 18:57:00,72.7,64.7,29.54,ESE,112,0.0,0.0,76,0.00,,,0.00,WUHU21623XXSP,2013-11-25 23:57:00,
2013-11-25 19:02:00,72.7,64.7,29.54,ENE,67,0.0,0.0,76,0.00,,,0.00,WUHU21623XXSP,2013-11-26 00:02:00,
2013-11-25 19:07:00,72.7,65.1,29.54,NNE,22,0.0,0.0,77,0.00,,,0.00,WUHU21623XXSP,2013-11-26 00:07:00,
2013-11-25 19:12:00,72.7,65.1,29.54,ENE,67,0.0,0.0,77,0.00,,,0.00,WUHU21623XXSP,2013-11-26 00:12:00,
2013-11-25 19:17:00,72.7,65.1,29.54,ENE,67,0.0,0.0,77,0.00,,,0.00,WUHU21623XXSP,2013-11-26 00:17:00,
2013-11-25 19:22:00,72.7,65.1,29.54,SE,135,0.0,0.0,77,0.00,,,0.00,WUHU21623XXSP,2013-11-26 00:22:00,
2013-11-25 19:27:00,72.7,65.1,29.54,NNE,22,0.0,0.0,77,0.00,,,0.00,WUHU21623XXSP,2013-11-26 00:27:00,
2013-11-25 19:32:00,72.9,65.2,29.54,SE,135,0.0,0.0,77,0.00,,,0.00,WUHU21623XXSP,2013-11-26 00:32:00,
2013-11-25 19:37:00,72.9,65.2,29.54,ENE,67,0.0,0.0,77,0.00,,,0.00,WUHU21623XXSP,2013-11-26 00:37:00,
2013-11-25 19:42:00,72.9,65.2,29.55,NE,45,0.0,0.0,77,0.00,,,0.00,WUHU21623XXSP,2013-11-26 00:42:00,
2013-11-25 19:47:00,72.7,65.1,29.55,North,0,0.0,0.0,77,0.00,,,0.00,WUHU21623XXSP,2013-11-26 00:47:00,
2013-11-25 19:52:00,72.7,65.1,29.55,ENE,67,0.0,0.0,77,0.00,,,0.00,WUHU21623XXSP,2013-11-26 00:52:00,
2013-11-25 19:57:00,72.3,65.1,29.55,SE,135,0.0,0.0,78,0.00,,,0.00,WUHU21623XXSP,2013-11-26 00:57:00,
2013-11-25 20:02:00,72.0,65.1,29.54,ESE,112,0.0,0.0,79,0.00,,,0.00,WUHU21623XXSP,2013-11-26 01:02:00,
2013-11-25 20:07:00,71.8,64.9,29.55,NE,45,0.0,0.0,79,0.00,,,0.00,WUHU21623XXSP,2013-11-26 01:07:00,
2013-11-25 20:12:00,71.8,64.9,29.55,NE,45,0.0,0.0,79,0.00,,,0.00,WUHU21623XXSP,2013-11-26 01:12:00,
2013-11-25 20:17:00,72.0,65.5,29.55,NE,45,0.0,0.0,80,0.00,,,0.00,WUHU21623XXSP,2013-11-26 01:17:00,
2013-11-25 20:22:00,72.0,65.5,29.55,NE,45,0.0,0.0,80,0.00,,,0.00,WUHU21623XXSP,2013-11-26 01:22:00,
2013-11-25 20:27:00,72.1,65.7,29.55,ENE,67,0.0,0.0,80,0.00,,,0.00,WUHU21623XXSP,2013-11-26 01:27:00,
2013-11-25 20:32:00,72.3,65.5,29.55,NE,45,0.0,0.0,79,0.00,,,0.00,WUHU21623XXSP,2013-11-26 01:32:00,
2013-11-25 20:37:00,72.1,65.7,29.55,ENE,67,0.0,0.0,80,0.00,,,0.00,WUHU21623XXSP,2013-11-26 01:37:00,
2013-11-25 20:42:00,72.0,65.8,29.56,NNE,22,0.0,0.0,81,0.00,,,0.00,WUHU21623XXSP,2013-11-26 01:42:00,
2013-11-25 20:47:00,71.8,65.6,29.55,NE,45,0.0,0.0,81,0.00,,,0.00,WUHU21623XXSP,2013-11-26 01:47:00,
2013-11-25 20:52:00,71.6,65.5,29.55,NE,45,0.0,0.0,81,0.00,,,0.00,WUHU21623XXSP,2013-11-26 01:52:00,
2013-11-25 20:57:00,71.6,65.5,29.55,ENE,67,0.0,0.0,81,0.00,,,0.00,WUHU21623XXSP,2013-11-26 01:57:00,
2013-11-25 21:02:00,71.8,65.6,29.55,NE,45,0.0,0.0,81,0.00,,,0.00,WUHU21623XXSP,2013-11-26 02:02:00,
2013-11-25 21:07:00,71.8,65.6,29.55,ENE,67,0.0,0.0,81,0.00,,,0.00,WUHU21623XXSP,2013-11-26 02:07:00,
2013-11-25 21:12:00,72.0,65.8,29.55,ENE,67,0.0,0.0,81,0.00,,,0.00,WUHU21623XXSP,2013-11-26 02:12:00,
2013-11-25 21:17:00,72.1,66.0,29.55,NE,45,0.0,0.0,81,0.00,,,0.00,WUHU21623XXSP,2013-11-26 02:17:00,
2013-11-25 21:22:00,72.1,66.0,29.55,NE,45,0.0,0.0,81,0.00,,,0.00,WUHU21623XXSP,2013-11-26 02:22:00,
2013-11-25 21:27:00,72.3,66.5,29.55,ENE,67,0.0,0.0,82,0.00,,,0.00,WUHU21623XXSP,2013-11-26 02:27:00,
2013-11-25 21:32:00,72.3,66.2,29.55,East,90,0.0,0.0,81,0.00,,,0.00,WUHU21623XXSP,2013-11-26 02:32:00,
2013-11-25 21:37:00,72.3,66.2,29.55,NE,45,0.0,0.0,81,0.00,,,0.00,WUHU21623XXSP,2013-11-26 02:37:00,
2013-11-25 21:42:00,72.1,66.0,29.54,ESE,112,0.0,0.0,81,0.00,,,0.00,WUHU21623XXSP,2013-11-26 02:42:00,
2013-11-25 21:47:00,72.1,66.0,29.54,East,90,0.0,0.0,81,0.00,,,0.00,WUHU21623XXSP,2013-11-26 02:47:00,
2013-11-25 21:52:00,72.0,65.8,29.54,East,90,0.0,0.0,81,0.00,,,0.00,WUHU21623XXSP,2013-11-26 02:52:00,
2013-11-25 21:57:00,72.0,66.2,29.53,ENE,67,0.0,0.0,82,0.00,,,0.00,WUHU21623XXSP,2013-11-26 02:57:00,
2013-11-25 22:02:00,72.1,66.3,29.53,SE,135,0.0,0.0,82,0.00,,,0.00,WUHU21623XXSP,2013-11-26 03:02:00,
2013-11-25 22:07:00,72.1,66.3,29.53,East,90,0.0,0.0,82,0.00,,,0.00,WUHU21623XXSP,2013-11-26 03:07:00,
2013-11-25 22:12:00,72.1,66.3,29.53,ESE,112,0.0,0.0,82,0.00,,,0.00,WUHU21623XXSP,2013-11-26 03:12:00,
2013-11-25 22:17:00,72.3,66.5,29.53,ESE,112,0.0,0.0,82,0.00,,,0.00,WUHU21623XXSP,2013-11-26 03:17:00,
2013-11-25 22:22:00,72.3,66.5,29.53,SE,135,0.0,0.0,82,0.00,,,0.00,WUHU21623XXSP,2013-11-26 03:22:00,
2013-11-25 22:27:00,72.3,66.5,29.52,East,90,0.0,0.0,82,0.00,,,0.00,WUHU21623XXSP,2013-11-26 03:27:00,
2013-11-25 22:32:00,72.3,66.5,29.52,SSE,157,0.0,0.0,82,0.00,,,0.00,WUHU21623XXSP,2013-11-26 03:32:00,
2013-11-25 22:37:00,72.3,66.5,29.52,SE,135,0.0,0.0,82,0.00,,,0.00,WUHU21623XXSP,2013-11-26 03:37:00,
2013-11-25 22:42:00,72.3,66.5,29.52,East,90,0.0,0.0,82,0.00,,,0.00,WUHU21623XXSP,2013-11-26 03:42:00,
2013-11-25 22:47:00,72.1,66.3,29.52,SSE,157,0.0,0.0,82,0.00,,,0.00,WUHU21623XXSP,2013-11-26 03:47:00,
2013-11-25 22:52:00,72.0,66.3,29.52,SE,135,0.0,0.0,82,0.00,,,0.00,WUHU21623XXSP,2013-11-26 03:52:00,
2013-11-25 22:57:00,71.8,66.0,29.51,ESE,112,0.0,0.0,82,0.04,,,0.00,WUHU21623XXSP,2013-11-26 03:57:00,
2013-11-25 23:02:00,71.6,66.0,29.52,SE,135,0.0,0.0,83,0.04,,,0.05,WUHU21623XXSP,2013-11-26 04:02:00,
2013-11-25 23:07:00,71.4,66.0,29.51,East,90,0.0,0.0,83,0.04,,,0.05,WUHU21623XXSP,2013-11-26 04:07:00,
2013-11-25 23:12:00,71.4,66.0,29.50,ESE,112,0.0,0.0,83,0.04,,,0.05,WUHU21623XXSP,2013-11-26 04:12:00,
2013-11-25 23:17:00,71.4,66.0,29.50,East,90,0.0,0.0,83,0.04,,,0.05,WUHU21623XXSP,2013-11-26 04:17:00,
2013-11-25 23:22:00,71.4,66.0,29.50,East,90,0.0,0.0,84,0.04,,,0.05,WUHU21623XXSP,2013-11-26 04:22:00,
2013-11-25 23:27:00,71.4,66.5,29.51,ENE,67,0.0,0.0,84,0.06,,,0.07,WUHU21623XXSP,2013-11-26 04:27:00,
2013-11-25 23:32:00,71.6,66.5,29.50,East,90,0.0,0.0,84,0.06,,,0.07,WUHU21623XXSP,2013-11-26 04:32:00,
2013-11-25 23:37:00,71.8,66.7,29.50,East,90,0.0,0.0,84,0.06,,,0.07,WUHU21623XXSP,2013-11-26 04:37:00,
2013-11-25 23:42:00,71.8,66.7,29.50,SE,135,0.0,0.0,84,0.06,,,0.07,WUHU21623XXSP,2013-11-26 04:42:00,
2013-11-25 23:47:00,71.8,66.7,29.50,ESE,112,0.0,0.0,84,0.06,,,0.07,WUHU21623XXSP,2013-11-26 04:47:00,
2013-11-25 23:52:00,71.8,66.7,29.50,ESE,112,0.0,0.0,84,0.06,,,0.07,WUHU21623XXSP,2013-11-26 04:52:00,
2013-11-25 23:57:00,71.8,66.7,29.50,ESE,112,0.0,0.0,84,0.02,,,0.07,WUHU21623XXSP,2013-11-26 04:57:00,